Weather in Pervushino

Russia / Kostroma Oblast     58°02′42″N   41°56′19″E
temp.,
°C
wind,
m/s
gust,
m/s
humid.,
%
clouds,
%
prec.,
mm/h
press.,
hPa
HPBL,
m
10 august, wed
wed1000:00+12n23972 0.0 102256
03:00+11n22971 0.0 102248
06:00+12nnw13942 0.0 102281
09:00+17nne247344 0.0 1023539
12:00+20n346014 0.1 10221009
15:00+22n344651 0.2 10222010
18:00+19nnw24583 0.0 1022636
21:00+13ne22850 0.0 102316
11 august, thu
thu1100:00+11n11915 0.0 102410
03:00+10nnw11946 0.0 102510
06:00+12nw11880 0.0 102647
09:00+19nnw11600 0.0 1026551
12:00+22nw12420 0.0 10251805
15:00+23wnw22383 0.0 10242015
18:00+21w23543 0.0 102394
21:00+15w22675 0.0 102416
12 august, fri
fri1200:00+13wsw2268100 0.0 102419
03:00+13sw246999 0.0 102469
06:00+14wsw2870100 0.0 1024187
09:00+19wsw475489 0.0 1024438
12:00+24w474012 0.0 10221509
15:00+25w57365 0.0 10211769
18:00+23wnw38474 0.0 1021595
21:00+17w26705 0.0 1022108
13 august, sat
sat1300:00+15wnw26785 0.0 1022118
03:00+15nnw228651 0.0 102323
06:00+16nnw138594 0.0 102478
09:00+22nw226385 0.0 1024571
12:00+24nw2346100 0.0 10241358
15:00+25n3344100 0.0 10241379
18:00+23ne126056 0.0 102353
21:00+17e127456 0.0 102411
14 august, sun
sun1400:00+16ese228095 0.0 102435
03:00+15se2483100 0.0 102471
06:00+16sse258083 0.0 1024122
09:00+21s245992 0.0 1024411
12:00+23ssw245792 0.0 1023556
15:00+26ssw2447100 0.0 10221582
18:00+22s2564100 0.0 1021117
21:00+21s2567100 0.0 102193